Find Starlink 35318

NORAD ID: 66146 Int'l Des: 2025-240 Owner: SPXS Country: US Constellation: starlink operational
LEOCIRCULAR

当前视图

正在加载3D地球...

About Starlink 35318

Starlink 35318 (NORAD 66146) is a starlink constellation satellite (v2 mini) launched Oct 25, 2025 by SPXS of US. It operates in LEO, CIRCULAR orbit with a mass of 575.00 kg.

即将过境

Passes for default location (London). Set your location on the main map for personalized predictions.

高度历史

Loading altitude history...

两行轨道根数

1 66146U 25240A 26264.60622858 .00014523 00000-0 44006-3 0 9995
2 66146 53.1570 228.5865 0001346 105.4143 254.7008 15.34404985 52099
Epoch: Sep 21, 2026 • Age: 13 hours

当前状态

高度 472.1 km
远地点 / 近地点 N/A
速度 7.63 km/s
星下点 -29.95°S, 10.31°E
发射日期 Oct 25, 2025
运行时间 0.9 years
类型 internet

技术详情

分类 Payload
质量 575.00 kg
干质量 530.00 kg
长度 0.30 m
跨度 29.00 m
形状 ? Box + pan
制造商 SPXS
平台类型 Starlink V2MO
阶段状态 In Orbit
所有者/国家 SPXS/US

Most Searched